| time (UTC) | temp F | wind direction | speed knots | gust knots | rain 1hr in | rain 24hr in | rain mn in | humidity % | barometer mb |
| 20260906113010 | 73 | 319 | 0.0 | 0.0 | 0.00 | 0.00 | 0.00 | 89 | 1014.2 |
| 20260906112505 | 73 | 313 | 0.0 | 0.0 | 0.00 | 0.00 | 0.00 | 90 | 1014.2 |
| 20260906112002 | 73 | 317 | 0.0 | 0.0 | 0.00 | 0.00 | 0.00 | 90 | 1013.8 |
| 20260906111501 | 73 | 318 | 0.0 | 0.0 | 0.00 | 0.00 | 0.00 | 90 | 1014.2 |
| 20260906110955 | 73 | 324 | 0.0 | 0.0 | 0.00 | 0.00 | 0.00 | 90 | 1013.8 |
| 20260906110450 | 73 | 304 | 0.0 | 0.9 | 0.00 | 0.00 | 0.00 | 90 | 1013.8 |
| 20260906105949 | 73 | 332 | 0.0 | 0.0 | 0.00 | 0.00 | 0.00 | 90 | 1013.8 |
| 20260906105445 | 73 | 334 | 0.0 | 0.0 | 0.00 | 0.00 | 0.00 | 90 | 1013.5 |
| 20260906104941 | 73 | 334 | 0.0 | 0.0 | 0.00 | 0.00 | 0.00 | 90 | 1013.8 |
| 20260906104440 | 73 | 334 | 0.0 | 0.0 | 0.00 | 0.00 | 0.00 | 90 | 1013.8 |
| 20260906103939 | 73 | 334 | 0.0 | 0.0 | 0.00 | 0.00 | 0.00 | 90 | 1013.8 |
| 20260906103437 | 73 | 334 | 0.0 | 0.0 | 0.00 | 0.00 | 0.00 | 90 | 1013.5 |
| 20260906102933 | 73 | 334 | 0.0 | 0.0 | 0.00 | 0.00 | 0.00 | 90 | 1013.5 |
| 20260906102432 | 73 | 334 | 0.0 | 0.0 | 0.00 | 0.00 | 0.00 | 90 | 1013.5 |
| 20260906101927 | 73 | 335 | 0.0 | 0.0 | 0.00 | 0.00 | 0.00 | 90 | 1013.5 |
| 20260906101423 | 73 | 331 | 0.0 | 0.0 | 0.00 | 0.00 | 0.00 | 89 | 1013.5 |
| 20260906100918 | 73 | 331 | 0.0 | 0.0 | 0.00 | 0.00 | 0.00 | 89 | 1013.5 |
| 20260906100418 | 73 | 330 | 0.0 | 0.0 | 0.00 | 0.00 | 0.00 | 89 | 1013.0 |
| 20260906095912 | 73 | 330 | 0.0 | 0.0 | 0.00 | 0.00 | 0.00 | 89 | 1013.0 |
| 20260906095408 | 73 | 331 | 0.0 | 0.0 | 0.00 | 0.00 | 0.00 | 89 | 1013.0 |
| 20260906094902 | 73 | 331 | 0.0 | 0.0 | 0.00 | 0.00 | 0.00 | 89 | 1013.0 |
| 20260906094357 | 73 | 329 | 0.0 | 0.0 | 0.00 | 0.00 | 0.00 | 89 | 1013.0 |
| 20260906093853 | 73 | 328 | 0.0 | 0.0 | 0.00 | 0.00 | 0.00 | 89 | 1013.0 |
| 20260906093349 | 73 | 329 | 0.0 | 0.0 | 0.00 | 0.00 | 0.00 | 89 | 1012.7 |
| 20260906092849 | 73 | 336 | 0.0 | 0.0 | 0.00 | 0.00 | 0.00 | 89 | 1013.0 |
| 20260906092343 | 73 | 336 | 0.0 | 0.0 | 0.00 | 0.00 | 0.00 | 90 | 1013.0 |
| 20260906091839 | 73 | 327 | 0.0 | 0.0 | 0.00 | 0.00 | 0.00 | 90 | 1013.0 |
| 20260906091335 | 73 | 327 | 0.0 | 0.0 | 0.00 | 0.00 | 0.00 | 90 | 1013.0 |
| 20260906090832 | 73 | 328 | 0.0 | 0.0 | 0.00 | 0.00 | 0.00 | 89 | 1013.0 |
| 20260906090330 | 73 | 328 | 0.0 | 0.0 | 0.00 | 0.00 | 0.00 | 89 | 1013.0 |
| 20260906085831 | 73 | 328 | 0.0 | 0.0 | 0.00 | 0.00 | 0.00 | 89 | 1012.7 |
| 20260906085330 | 73 | 328 | 0.0 | 0.0 | 0.00 | 0.00 | 0.00 | 89 | 1012.7 |
| 20260906084825 | 74 | 328 | 0.0 | 0.0 | 0.00 | 0.00 | 0.00 | 89 | 1012.7 |
| 20260906084324 | 74 | 328 | 0.0 | 0.0 | 0.00 | 0.00 | 0.00 | 89 | 1012.7 |
| 20260906083819 | 74 | 328 | 0.0 | 0.0 | 0.00 | 0.00 | 0.00 | 88 | 1012.7 |
| 20260906083315 | 74 | 328 | 0.0 | 0.0 | 0.00 | 0.00 | 0.00 | 88 | 1012.4 |
| 20260906082809 | 74 | 328 | 0.0 | 0.0 | 0.00 | 0.00 | 0.00 | 88 | 1012.7 |
| 20260906082306 | 0 | 0.0 | 0.0 | 0.00 | 0.00 | 0.00 | 1012.7 | ||
| 20260906081800 | 0 | 0.0 | 0.0 | 0.00 | 0.00 | 0.00 | 1013.0 | ||
| 20260906081255 | 0 | 0.0 | 0.0 | 0.00 | 0.00 | 0.00 | 1012.7 | ||
| 20260906080751 | 0 | 0.0 | 0.0 | 0.00 | 0.00 | 0.00 | 1012.7 | ||
| 20260906080248 | 0 | 0.0 | 0.0 | 0.00 | 0.00 | 0.00 | 1012.7 | ||
| 20260906075741 | 0 | 0.0 | 0.0 | 0.00 | 0.00 | 0.00 | 1012.7 | ||
| 20260906075236 | 0 | 0.0 | 0.0 | 0.00 | 0.00 | 0.00 | 1012.7 | ||
| 20260906074731 | 75 | 327 | 0.0 | 0.0 | 0.00 | 0.00 | 0.00 | 86 | 1012.7 |
| 20260906074231 | 75 | 327 | 0.0 | 0.0 | 0.00 | 0.00 | 0.00 | 86 | 1012.7 |
| 20260906073730 | 75 | 327 | 0.0 | 0.0 | 0.00 | 0.00 | 0.00 | 86 | 1012.7 |
| 20260906073225 | 0 | 0.0 | 0.0 | 0.00 | 0.00 | 0.00 | 1012.7 | ||
| 20260906072721 | 0 | 0.0 | 0.0 | 0.00 | 0.00 | 0.00 | 1012.7 | ||
| 20260906072216 | 0 | 0.0 | 0.0 | 0.00 | 0.00 | 0.00 | 1012.7 | ||
| 20260906071712 | 75 | 327 | 0.0 | 0.0 | 0.00 | 0.00 | 0.00 | 83 | 1013.0 |
| 20260906071212 | 75 | 327 | 0.0 | 0.0 | 0.00 | 0.00 | 0.00 | 83 | 1012.7 |
| 20260906070709 | 76 | 327 | 0.0 | 0.0 | 0.00 | 0.00 | 0.00 | 83 | 1012.7 |
| 20260906070204 | 76 | 327 | 0.0 | 0.0 | 0.00 | 0.00 | 0.00 | 83 | 1012.7 |
| 20260906065704 | 75 | 327 | 0.0 | 0.0 | 0.00 | 0.00 | 0.00 | 84 | 1013.0 |
| 20260906065159 | 75 | 327 | 0.0 | 0.0 | 0.00 | 0.00 | 0.00 | 84 | 1013.0 |
| 20260906064655 | 0 | 0.0 | 0.0 | 0.00 | 0.00 | 0.00 | 1013.0 | ||
| 20260906064150 | 0 | 0.0 | 0.0 | 0.00 | 0.00 | 0.00 | 1012.7 | ||
| 20260906063645 | 0 | 0.0 | 0.0 | 0.00 | 0.00 | 0.00 | 1013.0 | ||
| 20260906063141 | 76 | 328 | 0.0 | 0.0 | 0.00 | 0.00 | 0.00 | 81 | 1012.7 |
| 20260906062636 | 76 | 328 | 0.0 | 0.0 | 0.00 | 0.00 | 0.00 | 81 | 1013.0 |
| 20260906062135 | 76 | 328 | 0.0 | 0.0 | 0.00 | 0.00 | 0.00 | 80 | 1013.0 |
| 20260906061632 | 76 | 328 | 0.0 | 0.0 | 0.00 | 0.00 | 0.00 | 80 | 1013.0 |
| 20260906061131 | 77 | 328 | 0.0 | 0.0 | 0.00 | 0.00 | 0.00 | 79 | 1013.0 |
| 20260906060628 | 77 | 328 | 0.0 | 0.0 | 0.00 | 0.00 | 0.00 | 79 | 1013.0 |
| 20260906060125 | 77 | 328 | 0.0 | 0.0 | 0.00 | 0.00 | 0.00 | 78 | 1013.0 |
| 20260906055620 | 77 | 328 | 0.0 | 0.0 | 0.00 | 0.00 | 0.00 | 78 | 1013.0 |
| 20260906055115 | 77 | 328 | 0.0 | 0.0 | 0.00 | 0.00 | 0.00 | 77 | 1013.0 |
| 20260906054610 | 78 | 328 | 0.0 | 0.0 | 0.00 | 0.00 | 0.00 | 77 | 1013.0 |
| 20260906054106 | 78 | 328 | 0.0 | 0.0 | 0.00 | 0.00 | 0.00 | 77 | 1013.0 |
| 20260906053602 | 78 | 328 | 0.0 | 0.0 | 0.00 | 0.00 | 0.00 | 77 | 1013.0 |
| 20260906053057 | 78 | 327 | 0.0 | 0.0 | 0.00 | 0.00 | 0.00 | 76 | 1013.0 |
| 20260906052552 | 78 | 331 | 0.0 | 0.0 | 0.00 | 0.00 | 0.00 | 76 | 1013.0 |
| 20260906052049 | 78 | 330 | 0.0 | 0.0 | 0.00 | 0.00 | 0.00 | 76 | 1013.0 |
| 20260906051545 | 78 | 330 | 0.0 | 0.0 | 0.00 | 0.00 | 0.00 | 76 | 1013.5 |
| 20260906051040 | 79 | 323 | 0.0 | 0.0 | 0.00 | 0.00 | 0.00 | 75 | 1013.5 |
| 20260906050535 | 80 | 323 | 0.0 | 0.0 | 0.00 | 0.00 | 0.00 | 74 | 1013.0 |
| 20260906050030 | 80 | 323 | 0.0 | 0.0 | 0.00 | 0.00 | 0.00 | 74 | 1013.5 |
| 20260906045528 | 80 | 323 | 0.0 | 0.0 | 0.00 | 0.00 | 0.00 | 74 | 1013.8 |
| 20260906045024 | 80 | 325 | 0.0 | 0.0 | 0.00 | 0.00 | 0.00 | 74 | 1013.5 |
| 20260906044520 | 0 | 0.0 | 0.0 | 0.00 | 0.00 | 0.00 | 1013.5 | ||
| 20260906044015 | 0 | 0.0 | 0.0 | 0.00 | 0.00 | 0.00 | 1013.0 | ||
| 20260906043511 | 0 | 0.0 | 0.0 | 0.00 | 0.00 | 0.00 | 1013.5 | ||
| 20260906043007 | 82 | 320 | 0.0 | 0.0 | 0.00 | 0.00 | 0.00 | 71 | 1013.0 |
| 20260906042505 | 82 | 320 | 0.0 | 0.0 | 0.00 | 0.00 | 0.00 | 71 | 1013.0 |
| 20260906042005 | 81 | 352 | 0.0 | 0.0 | 0.00 | 0.00 | 0.00 | 71 | 1013.5 |
| 20260906041502 | 81 | 352 | 0.0 | 0.0 | 0.00 | 0.00 | 0.00 | 71 | 1013.5 |
| 20260906041001 | 81 | 4 | 0.9 | 0.9 | 0.00 | 0.00 | 0.00 | 71 | 1013.5 |
| 20260906040456 | 80 | 319 | 0.0 | 0.0 | 0.00 | 0.00 | 0.00 | 74 | 1013.5 |
| 20260906035951 | 80 | 315 | 0.0 | 0.0 | 0.00 | 0.00 | 0.00 | 74 | 1013.5 |
| 20260906035447 | 80 | 2 | 0.9 | 0.9 | 0.00 | 0.00 | 0.00 | 75 | 1013.8 |
| 20260906034942 | 79 | 326 | 0.0 | 0.0 | 0.00 | 0.00 | 0.00 | 76 | 1013.0 |
| 20260906034437 | 79 | 326 | 0.0 | 0.0 | 0.00 | 0.00 | 0.00 | 76 | 1013.0 |
| 20260906033933 | 80 | 327 | 0.0 | 0.0 | 0.00 | 0.00 | 0.00 | 76 | 1013.0 |
| 20260906033432 | 80 | 326 | 0.0 | 0.0 | 0.00 | 0.00 | 0.00 | 75 | 1013.0 |
| 20260906032928 | 80 | 338 | 0.0 | 0.0 | 0.00 | 0.00 | 0.00 | 75 | 1013.0 |
| 20260906032425 | 79 | 257 | 2.6 | 2.6 | 0.00 | 0.00 | 0.00 | 75 | 1013.0 |
| 20260906031919 | 79 | 10 | 0.9 | 0.9 | 0.00 | 0.00 | 0.00 | 75 | 1013.5 |
| 20260906031414 | 79 | 341 | 0.0 | 0.0 | 0.00 | 0.00 | 0.00 | 78 | 1013.0 |
| 20260906030909 | 79 | 354 | 0.0 | 0.0 | 0.00 | 0.00 | 0.00 | 77 | 1013.0 |
| 20260906030404 | 79 | 307 | 0.0 | 0.0 | 0.00 | 0.00 | 0.00 | 77 | 1012.7 |
| 20260906025858 | 79 | 307 | 0.0 | 0.0 | 0.00 | 0.00 | 0.00 | 77 | 1012.7 |
| 20260906025353 | 79 | 308 | 0.0 | 0.0 | 0.00 | 0.00 | 0.00 | 77 | 1012.7 |
| 20260906024852 | 79 | 308 | 0.0 | 0.0 | 0.00 | 0.00 | 0.00 | 77 | 1012.7 |
| 20260906024351 | 79 | 308 | 0.0 | 0.0 | 0.00 | 0.00 | 0.00 | 77 | 1012.7 |
| 20260906023846 | 80 | 308 | 0.0 | 0.0 | 0.00 | 0.00 | 0.00 | 76 | 1012.4 |
| 20260906023343 | 80 | 308 | 0.0 | 0.0 | 0.00 | 0.00 | 0.00 | 75 | 1012.4 |
| 20260906022837 | 80 | 308 | 0.0 | 0.0 | 0.00 | 0.00 | 0.00 | 75 | 1012.4 |
| 20260906022332 | 80 | 307 | 0.0 | 0.0 | 0.00 | 0.00 | 0.00 | 74 | 1012.4 |
| 20260906021828 | 80 | 308 | 0.0 | 0.0 | 0.00 | 0.00 | 0.00 | 73 | 1012.4 |
| 20260906021327 | 81 | 307 | 0.0 | 0.0 | 0.00 | 0.00 | 0.00 | 72 | 1012.4 |
| 20260906020822 | 81 | 307 | 0.0 | 0.0 | 0.00 | 0.00 | 0.00 | 72 | 1012.0 |
| 20260906020321 | 81 | 307 | 0.0 | 0.0 | 0.00 | 0.00 | 0.00 | 71 | 1012.0 |
| 20260906015816 | 81 | 306 | 0.0 | 0.0 | 0.00 | 0.00 | 0.00 | 70 | 1012.0 |
| 20260906015314 | 81 | 309 | 0.0 | 0.0 | 0.00 | 0.00 | 0.00 | 71 | 1011.7 |
| 20260906014809 | 82 | 307 | 0.0 | 0.0 | 0.00 | 0.00 | 0.00 | 70 | 1011.7 |
| 20260906014304 | 82 | 311 | 0.0 | 0.9 | 0.00 | 0.00 | 0.00 | 70 | 1011.7 |
| 20260906013800 | 82 | 312 | 0.0 | 0.0 | 0.00 | 0.00 | 0.00 | 68 | 1012.0 |
| 20260906013255 | 82 | 312 | 0.0 | 0.0 | 0.00 | 0.00 | 0.00 | 67 | 1012.0 |
| 20260906012750 | 82 | 303 | 0.0 | 0.0 | 0.00 | 0.00 | 0.00 | 66 | 1012.0 |
| 20260906012245 | 83 | 320 | 0.0 | 0.0 | 0.00 | 0.00 | 0.00 | 66 | 1011.7 |
| 20260906011741 | 83 | 334 | 0.0 | 0.0 | 0.00 | 0.00 | 0.00 | 65 | 1012.0 |
| 20260906011240 | 83 | 336 | 0.0 | 0.0 | 0.00 | 0.00 | 0.00 | 65 | 1011.7 |
| 20260906010736 | 83 | 317 | 0.0 | 0.0 | 0.00 | 0.00 | 0.00 | 65 | 1012.0 |
| 20260906010232 | 83 | 315 | 0.0 | 0.9 | 0.00 | 0.00 | 0.00 | 66 | 1012.0 |
| 20260906005727 | 82 | 84 | 1.7 | 2.6 | 0.00 | 0.00 | 0.00 | 67 | 1012.0 |
| 20260906005226 | 82 | 312 | 0.0 | 0.0 | 0.00 | 0.00 | 0.00 | 67 | 1011.7 |
| 20260906004726 | 82 | 305 | 0.0 | 0.0 | 0.00 | 0.00 | 0.00 | 67 | 1011.3 |
| 20260906004221 | 82 | 305 | 0.0 | 0.9 | 0.00 | 0.00 | 0.00 | 66 | 1011.3 |
| 20260906003716 | 83 | 305 | 0.0 | 0.0 | 0.00 | 0.00 | 0.00 | 65 | 1011.3 |
| 20260906003212 | 84 | 305 | 0.0 | 0.0 | 0.00 | 0.00 | 0.00 | 65 | 1011.3 |
| 20260906002711 | 84 | 305 | 0.0 | 0.0 | 0.00 | 0.00 | 0.00 | 64 | 1011.3 |
| 20260906002206 | 85 | 305 | 0.0 | 0.0 | 0.00 | 0.00 | 0.00 | 62 | 1011.3 |
| 20260906001702 | 85 | 300 | 0.0 | 0.0 | 0.00 | 0.00 | 0.00 | 62 | 1011.3 |
| 20260906001202 | 85 | 308 | 0.0 | 0.9 | 0.00 | 0.00 | 0.00 | 59 | 1011.7 |
| 20260906000657 | 85 | 308 | 0.0 | 0.0 | 0.00 | 0.00 | 0.00 | 60 | 1012.0 |
| 20260906000152 | 86 | 308 | 0.9 | 0.9 | 0.00 | 0.00 | 0.00 | 59 | 1012.0 |
| 20260905235651 | 86 | 304 | 0.0 | 0.0 | 0.00 | 0.00 | 0.00 | 58 | 1012.0 |
| 20260905235146 | 86 | 321 | 0.9 | 0.9 | 0.00 | 0.00 | 0.00 | 60 | 1012.0 |
| 20260905234642 | 86 | 324 | 0.9 | 0.9 | 0.00 | 0.00 | 0.00 | 59 | 1012.0 |
| 20260905234137 | 86 | 334 | 0.9 | 0.9 | 0.00 | 0.00 | 0.00 | 59 | 1012.0 |
| 20260905233632 | 86 | 331 | 0.0 | 0.0 | 0.00 | 0.00 | 0.00 | 61 | 1011.7 |
| 20260905233126 | 86 | 319 | 0.0 | 0.9 | 0.00 | 0.00 | 0.00 | 60 | 1011.7 |
| 20260905232622 | 87 | 308 | 2.6 | 2.6 | 0.00 | 0.00 | 0.00 | 58 | 1012.0 |
| 20260905232117 | 87 | 232 | 1.7 | 2.6 | 0.00 | 0.00 | 0.00 | 58 | 1012.0 |
| 20260905231617 | 87 | 301 | 0.9 | 0.9 | 0.00 | 0.00 | 0.00 | 58 | 1012.4 |
| 20260905231113 | 89 | 280 | 6.1 | 8.7 | 0.00 | 0.00 | 0.00 | 55 | 1012.4 |
| 20260905230608 | 91 | 246 | 6.1 | 12.2 | 0.00 | 0.00 | 0.00 | 52 | 1012.4 |
| 20260905225600 | 91 | 282 | 1.7 | 2.6 | 0.00 | 0.00 | 0.00 | 52 | 1012.0 |
| 20260905225056 | 93 | 347 | 2.6 | 3.5 | 0.00 | 0.00 | 0.00 | 50 | 1012.0 |
| 20260905224555 | 94 | 288 | 2.6 | 4.3 | 0.00 | 0.00 | 0.00 | 49 | 1011.7 |
| 20260905224055 | 95 | 291 | 0.9 | 0.9 | 0.00 | 0.00 | 0.00 | 46 | 1011.3 |
| 20260905223553 | 95 | 287 | 0.0 | 0.9 | 0.00 | 0.00 | 0.00 | 47 | 1011.7 |
| 20260905223049 | 95 | 287 | 0.0 | 0.0 | 0.00 | 0.00 | 0.00 | 47 | 1011.7 |
| 20260905222548 | 96 | 297 | 0.9 | 0.9 | 0.00 | 0.00 | 0.00 | 45 | 1011.3 |
| 20260905222044 | 96 | 287 | 0.0 | 0.9 | 0.00 | 0.00 | 0.00 | 44 | 1011.3 |
| 20260905221540 | 96 | 309 | 0.9 | 0.9 | 0.00 | 0.00 | 0.00 | 43 | 1011.7 |
| 20260905221036 | 97 | 324 | 1.7 | 2.6 | 0.00 | 0.00 | 0.00 | 41 | 1011.3 |
| 20260905220531 | 98 | 324 | 1.7 | 2.6 | 0.00 | 0.00 | 0.00 | 41 | 1011.3 |
| 20260905220027 | 98 | 266 | 1.7 | 2.6 | 0.00 | 0.00 | 0.00 | 39 | 1011.3 |
| 20260905215526 | 98 | 269 | 2.6 | 3.5 | 0.00 | 0.00 | 0.00 | 39 | 1011.3 |
| 20260905215023 | 99 | 315 | 4.3 | 6.1 | 0.00 | 0.00 | 0.00 | 41 | 1011.3 |
| 20260905214518 | 100 | 224 | 2.6 | 2.6 | 0.00 | 0.00 | 0.00 | 39 | 1011.3 |
| 20260905214014 | 100 | 325 | 1.7 | 2.6 | 0.00 | 0.00 | 0.00 | 39 | 1011.3 |
| 20260905213509 | 99 | 288 | 2.6 | 2.6 | 0.00 | 0.00 | 0.00 | 38 | 1011.3 |
| 20260905213004 | 100 | 249 | 3.5 | 4.3 | 0.00 | 0.00 | 0.00 | 38 | 1011.3 |
| 20260905212459 | 101 | 244 | 1.7 | 2.6 | 0.00 | 0.00 | 0.00 | 37 | 1011.3 |
| 20260905211958 | 100 | 319 | 0.0 | 0.9 | 0.00 | 0.00 | 0.00 | 37 | 1011.3 |
| 20260905211454 | 100 | 248 | 2.6 | 3.5 | 0.00 | 0.00 | 0.00 | 38 | 1011.3 |
| 20260905210949 | 101 | 293 | 2.6 | 4.3 | 0.00 | 0.00 | 0.00 | 39 | 1011.7 |
| 20260905210445 | 100 | 220 | 2.6 | 3.5 | 0.00 | 0.00 | 0.00 | 38 | 1011.7 |
| 20260905205944 | 100 | 200 | 2.6 | 3.5 | 0.00 | 0.00 | 0.00 | 39 | 1011.7 |
| 20260905205439 | 100 | 271 | 0.9 | 0.9 | 0.00 | 0.00 | 0.00 | 38 | 1012.0 |
| 20260905204937 | 100 | 272 | 1.7 | 2.6 | 0.00 | 0.00 | 0.00 | 38 | 1012.0 |
| 20260905204434 | 100 | 272 | 0.9 | 0.9 | 0.00 | 0.00 | 0.00 | 38 | 1012.0 |
| 20260905203933 | 100 | 270 | 1.7 | 2.6 | 0.00 | 0.00 | 0.00 | 39 | 1012.0 |
| 20260905203428 | 100 | 316 | 4.3 | 4.3 | 0.00 | 0.00 | 0.00 | 41 | 1012.4 |
| 20260905202924 | 99 | 261 | 0.9 | 2.6 | 0.00 | 0.00 | 0.00 | 39 | 1012.4 |
| 20260905202419 | 98 | 315 | 0.9 | 0.9 | 0.00 | 0.00 | 0.00 | 42 | 1012.4 |
| 20260905201914 | 98 | 280 | 1.7 | 2.6 | 0.00 | 0.00 | 0.00 | 40 | 1012.4 |
| 20260905201410 | 99 | 255 | 4.3 | 4.3 | 0.00 | 0.00 | 0.00 | 40 | 1012.4 |
| 20260905200909 | 99 | 290 | 2.6 | 3.5 | 0.00 | 0.00 | 0.00 | 40 | 1012.4 |
| 20260905200405 | 101 | 261 | 3.5 | 4.3 | 0.00 | 0.00 | 0.00 | 39 | 1012.7 |
| 20260905195903 | 101 | 277 | 2.6 | 3.5 | 0.00 | 0.00 | 0.00 | 38 | 1012.7 |
| 20260905195359 | 100 | 303 | 1.7 | 2.6 | 0.00 | 0.00 | 0.00 | 41 | 1012.7 |
| 20260905194854 | 100 | 299 | 2.6 | 6.1 | 0.00 | 0.00 | 0.00 | 39 | 1012.7 |
| 20260905194354 | 99 | 318 | 0.0 | 0.0 | 0.00 | 0.00 | 0.00 | 40 | 1013.0 |
| 20260905193854 | 101 | 187 | 2.6 | 3.5 | 0.00 | 0.00 | 0.00 | 39 | 1012.7 |
| 20260905193348 | 100 | 300 | 1.7 | 3.5 | 0.00 | 0.00 | 0.00 | 41 | 1013.0 |
| 20260905192844 | 100 | 284 | 0.9 | 0.9 | 0.00 | 0.00 | 0.00 | 40 | 1013.0 |
| 20260905192340 | 100 | 244 | 1.7 | 3.5 | 0.00 | 0.00 | 0.00 | 41 | 1013.0 |
| 20260905191839 | 101 | 28 | 2.6 | 2.6 | 0.00 | 0.00 | 0.00 | 40 | 1013.0 |
| 20260905191337 | 99 | 296 | 1.7 | 3.5 | 0.00 | 0.00 | 0.00 | 40 | 1013.0 |
| 20260905190831 | 99 | 289 | 1.7 | 3.5 | 0.00 | 0.00 | 0.00 | 44 | 1013.0 |
| 20260905190331 | 99 | 304 | 4.3 | 6.1 | 0.00 | 0.00 | 0.00 | 43 | 1013.0 |
| 20260905185829 | 98 | 296 | 1.7 | 3.5 | 0.00 | 0.00 | 0.00 | 44 | 1013.5 |
| 20260905185325 | 99 | 255 | 2.6 | 3.5 | 0.00 | 0.00 | 0.00 | 42 | 1013.0 |
| 20260905184824 | 99 | 288 | 1.7 | 2.6 | 0.00 | 0.00 | 0.00 | 43 | 1013.5 |
| 20260905184323 | 99 | 225 | 2.6 | 2.6 | 0.00 | 0.00 | 0.00 | 42 | 1013.8 |
| 20260905183822 | 98 | 305 | 0.9 | 2.6 | 0.00 | 0.00 | 0.00 | 42 | 1013.8 |
| 20260905183318 | 98 | 336 | 2.6 | 3.5 | 0.00 | 0.00 | 0.00 | 43 | 1013.8 |
| 20260905182812 | 98 | 268 | 2.6 | 3.5 | 0.00 | 0.00 | 0.00 | 42 | 1013.8 |
| 20260905182312 | 99 | 292 | 2.6 | 3.5 | 0.00 | 0.00 | 0.00 | 44 | 1013.8 |
| 20260905181807 | 98 | 241 | 1.7 | 2.6 | 0.00 | 0.00 | 0.00 | 46 | 1013.8 |
| 20260905181306 | 98 | 284 | 2.6 | 3.5 | 0.00 | 0.00 | 0.00 | 44 | 1013.8 |
| 20260905180800 | 97 | 290 | 0.9 | 0.9 | 0.00 | 0.00 | 0.00 | 44 | 1014.2 |
| 20260905180255 | 98 | 250 | 1.7 | 2.6 | 0.00 | 0.00 | 0.00 | 46 | 1014.2 |
| 20260905175750 | 97 | 225 | 1.7 | 2.6 | 0.00 | 0.00 | 0.00 | 46 | 1013.8 |
| 20260905175245 | 96 | 323 | 0.9 | 0.9 | 0.00 | 0.00 | 0.00 | 47 | 1014.2 |
| 20260905174740 | 95 | 257 | 1.7 | 2.6 | 0.00 | 0.00 | 0.00 | 48 | 1014.2 |
| 20260905174236 | 96 | 289 | 0.9 | 0.9 | 0.00 | 0.00 | 0.00 | 48 | 1014.2 |
| 20260905173732 | 95 | 310 | 1.7 | 2.6 | 0.00 | 0.00 | 0.00 | 50 | 1014.5 |
| 20260905173227 | 95 | 302 | 0.9 | 0.9 | 0.00 | 0.00 | 0.00 | 49 | 1014.2 |
| 20260905172721 | 95 | 311 | 0.0 | 0.9 | 0.00 | 0.00 | 0.00 | 48 | 1014.5 |
| 20260905172221 | 96 | 312 | 1.7 | 2.6 | 0.00 | 0.00 | 0.00 | 47 | 1014.5 |
| 20260905171716 | 98 | 139 | 1.7 | 2.6 | 0.00 | 0.00 | 0.00 | 44 | 1014.8 |
| 20260905171212 | 97 | 293 | 2.6 | 3.5 | 0.00 | 0.00 | 0.00 | 43 | 1014.8 |
| 20260905170710 | 97 | 327 | 2.6 | 3.5 | 0.00 | 0.00 | 0.00 | 45 | 1014.8 |
| 20260905170210 | 96 | 302 | 0.0 | 0.9 | 0.00 | 0.00 | 0.00 | 49 | 1015.2 |
| 20260905165709 | 95 | 327 | 0.0 | 0.9 | 0.00 | 0.00 | 0.00 | 49 | 1014.8 |
| 20260905165205 | 94 | 335 | 2.6 | 2.6 | 0.00 | 0.00 | 0.00 | 52 | 1015.2 |
| 20260905164659 | 95 | 321 | 1.7 | 2.6 | 0.00 | 0.00 | 0.00 | 51 | 1015.2 |
| 20260905164159 | 95 | 341 | 0.0 | 0.0 | 0.00 | 0.00 | 0.00 | 50 | 1014.8 |
| 20260905163655 | 96 | 343 | 0.9 | 0.9 | 0.00 | 0.00 | 0.00 | 51 | 1015.2 |
| 20260905163151 | 97 | 296 | 0.9 | 0.9 | 0.00 | 0.00 | 0.00 | 50 | 1014.8 |
| 20260905162647 | 96 | 285 | 0.9 | 0.9 | 0.00 | 0.00 | 0.00 | 48 | 1015.2 |
| 20260905162146 | 95 | 298 | 0.9 | 0.9 | 0.00 | 0.00 | 0.00 | 51 | 1015.2 |
| 20260905161641 | 96 | 310 | 0.9 | 0.9 | 0.00 | 0.00 | 0.00 | 51 | 1014.8 |
| 20260905161139 | 95 | 353 | 1.7 | 2.6 | 0.00 | 0.00 | 0.00 | 52 | 1015.2 |
| 20260905160638 | 95 | 310 | 0.0 | 0.0 | 0.00 | 0.00 | 0.00 | 51 | 1015.2 |
| 20260905160132 | 95 | 327 | 1.7 | 2.6 | 0.00 | 0.00 | 0.00 | 52 | 1015.2 |
| 20260905155633 | 95 | 339 | 0.0 | 0.9 | 0.00 | 0.00 | 0.00 | 53 | 1015.2 |
| 20260905155131 | 96 | 26 | 0.0 | 0.9 | 0.00 | 0.00 | 0.00 | 51 | 1015.2 |
| 20260905154626 | 95 | 317 | 0.0 | 0.9 | 0.00 | 0.00 | 0.00 | 54 | 1015.5 |
| 20260905154122 | 95 | 334 | 3.5 | 3.5 | 0.00 | 0.00 | 0.00 | 53 | 1015.2 |
| 20260905153617 | 94 | 320 | 1.7 | 2.6 | 0.00 | 0.00 | 0.00 | 54 | 1015.5 |
| 20260905153112 | 95 | 322 | 0.0 | 0.9 | 0.00 | 0.00 | 0.00 | 54 | 1015.2 |
| 20260905152607 | 94 | 29 | 0.9 | 0.9 | 0.00 | 0.00 | 0.00 | 53 | 1015.2 |
| 20260905152102 | 95 | 290 | 0.0 | 0.9 | 0.00 | 0.00 | 0.00 | 54 | 1015.2 |
| 20260905151557 | 94 | 289 | 0.0 | 0.9 | 0.00 | 0.00 | 0.00 | 53 | 1015.5 |
| 20260905151052 | 92 | 299 | 0.0 | 0.0 | 0.00 | 0.00 | 0.00 | 57 | 1015.2 |
| 20260905150547 | 93 | 231 | 1.7 | 2.6 | 0.00 | 0.00 | 0.00 | 57 | 1015.5 |
| 20260905150045 | 91 | 299 | 0.0 | 0.0 | 0.00 | 0.00 | 0.00 | 60 | 1015.2 |
| 20260905145538 | 91 | 291 | 0.0 | 0.0 | 0.00 | 0.00 | 0.00 | 60 | 1015.8 |
| 20260905145038 | 91 | 295 | 0.9 | 0.9 | 0.00 | 0.00 | 0.00 | 61 | 1015.5 |
| 20260905144533 | 90 | 268 | 0.9 | 0.9 | 0.00 | 0.00 | 0.00 | 62 | 1015.2 |
| 20260905144032 | 90 | 319 | 0.0 | 0.0 | 0.00 | 0.00 | 0.00 | 64 | 1015.5 |
| 20260905143531 | 89 | 282 | 0.9 | 0.9 | 0.00 | 0.00 | 0.00 | 64 | 1015.2 |
| 20260905143027 | 90 | 274 | 0.9 | 0.9 | 0.00 | 0.00 | 0.00 | 63 | 1015.5 |
| 20260905142525 | 89 | 306 | 0.0 | 0.0 | 0.00 | 0.00 | 0.00 | 64 | 1015.5 |
| 20260905142021 | 88 | 325 | 1.7 | 2.6 | 0.00 | 0.00 | 0.00 | 68 | 1015.5 |
| 20260905141515 | 87 | 278 | 1.7 | 2.6 | 0.00 | 0.00 | 0.00 | 67 | 1015.5 |
| 20260905141012 | 87 | 312 | 0.9 | 0.9 | 0.00 | 0.00 | 0.00 | 66 | 1015.5 |
| 20260905140506 | 88 | 306 | 0.9 | 0.9 | 0.00 | 0.00 | 0.00 | 66 | 1015.5 |
| 20260905140005 | 87 | 332 | 0.0 | 0.0 | 0.00 | 0.00 | 0.00 | 68 | 1015.5 |
| 20260905135501 | 87 | 320 | 1.7 | 2.6 | 0.00 | 0.00 | 0.00 | 67 | 1015.8 |
| 20260905134956 | 87 | 294 | 0.9 | 0.9 | 0.00 | 0.00 | 0.00 | 66 | 1015.5 |
| 20260905134455 | 89 | 319 | 0.0 | 0.0 | 0.00 | 0.00 | 0.00 | 65 | 1015.5 |
| 20260905133954 | 86 | 319 | 0.0 | 0.0 | 0.00 | 0.00 | 0.00 | 70 | 1015.5 |
| 20260905133444 | 86 | 319 | 0.9 | 0.9 | 0.00 | 0.00 | 0.00 | 71 | 1015.8 |
| 20260905132943 | 85 | 319 | 0.0 | 0.0 | 0.00 | 0.00 | 0.00 | 74 | 1015.8 |
| 20260905132438 | 84 | 319 | 0.0 | 0.0 | 0.00 | 0.00 | 0.00 | 75 | 1015.8 |
| 20260905131933 | 84 | 315 | 0.9 | 0.9 | 0.00 | 0.00 | 0.00 | 74 | 1015.8 |
| 20260905131430 | 83 | 306 | 0.0 | 0.0 | 0.00 | 0.00 | 0.00 | 75 | 1015.5 |
| 20260905130929 | 83 | 330 | 0.0 | 0.0 | 0.00 | 0.00 | 0.00 | 79 | 1015.8 |
| 20260905130424 | 81 | 331 | 0.0 | 0.0 | 0.00 | 0.00 | 0.00 | 83 | 1015.8 |
| 20260905125923 | 81 | 344 | 0.0 | 0.0 | 0.00 | 0.00 | 0.00 | 88 | 1015.5 |
| 20260905125418 | 81 | 344 | 0.0 | 0.0 | 0.00 | 0.00 | 0.00 | 92 | 1015.5 |
| 20260905124914 | 80 | 345 | 0.0 | 0.0 | 0.00 | 0.00 | 0.00 | 92 | 1015.8 |
| 20260905124411 | 78 | 345 | 0.0 | 0.0 | 0.00 | 0.00 | 0.00 | 93 | 1015.8 |
| 20260905123910 | 77 | 345 | 0.0 | 0.0 | 0.00 | 0.00 | 0.00 | 93 | 1015.8 |
| 20260905123407 | 77 | 345 | 0.0 | 0.0 | 0.00 | 0.00 | 0.00 | 93 | 1015.8 |
| 20260905122902 | 77 | 345 | 0.0 | 0.0 | 0.00 | 0.00 | 0.00 | 93 | 1015.8 |
| 20260905122401 | 77 | 345 | 0.0 | 0.0 | 0.00 | 0.00 | 0.00 | 93 | 1015.8 |
| 20260905121857 | 76 | 345 | 0.0 | 0.0 | 0.00 | 0.00 | 0.00 | 93 | 1015.5 |
| 20260905121353 | 75 | 345 | 0.0 | 0.0 | 0.00 | 0.00 | 0.00 | 93 | 1015.5 |
| 20260905120852 | 75 | 346 | 0.0 | 0.0 | 0.00 | 0.00 | 0.00 | 93 | 1015.5 |
| 20260905120346 | 75 | 346 | 0.0 | 0.0 | 0.00 | 0.00 | 0.00 | 93 | 1015.5 |
| 20260905115842 | 74 | 346 | 0.0 | 0.0 | 0.00 | 0.00 | 0.00 | 93 | 1015.5 |
| 20260905115340 | 74 | 346 | 0.0 | 0.0 | 0.00 | 0.00 | 0.00 | 93 | 1015.2 |
| 20260905114835 | 74 | 346 | 0.0 | 0.0 | 0.00 | 0.00 | 0.00 | 93 | 1015.2 |
| 20260905114334 | 74 | 345 | 0.0 | 0.0 | 0.00 | 0.00 | 0.00 | 93 | 1015.2 |
| 20260905113834 | 74 | 345 | 0.0 | 0.0 | 0.00 | 0.00 | 0.00 | 93 | 1015.2 |
| 20260905113330 | 74 | 345 | 0.0 | 0.0 | 0.00 | 0.00 | 0.00 | 92 | 1015.2 |